Flag for Netherlands Weather past 2 weeks in Eindhoven, Netherlands

Now
63 °F

Broken clouds.


Feels Like: 63 °F
Forecast: 49 / 63 °F
Wind: 16 mph from Southwest

Location: Eindhoven Airport

Current Time: Aug 22, 2014 at 12:15:54 PM

Latest Report: Aug 22, 2014 at 11:25 AM


Visibility: N/A

Pressure: 29.86 "Hg

Humidity: 68%

Dew point: 52 °F

Location of EindhovenLocation

Historic Weather in Eindhoven — Graph

°F

Eindhoven temperature yesterday

Maximum temperature yesterday: 68 °F (at 2:55 PM)
Minimum temperature yesterday: 45 °F (at 1:55 AM)
Average temperature yesterday: 56 °F

Past Weeks' High & Low Weather Summary

 TemperatureHumidityPressure
High77 °F (Aug 7, 3:58 PM)100% (Aug 8, 10:25 PM)30.09 "Hg (Aug 8, 10:25 PM)
Low45 °F (Aug 20, 1:55 AM)46% (Aug 21, 2:55 PM)29.50 "Hg (Aug 10, 5:55 PM)
Average60 °F83%29.84 "Hg
* Reported Aug 7 10:25 AM — Aug 22 10:55 AM, Eindhoven, Weather by CustomWeather, © 2014

Note: Actual official high and low records may vary slightly from our data, if they occured in-between our weather recording intervals... More about our weather records

Advertising

Eindhoven weather history for previous 24 hours

 ConditionsComfort  
Time TempWeatherWind HumidityBarometerVisibility
10:55 AM
Aug 22
63 °FOvercast.14 mph68%29.86 "HgN/A
10:25 AM61 °FOvercast.14 mph72%29.86 "HgN/A
9:55 AM59 °FOvercast.12 mph72%29.86 "HgN/A
9:25 AM57 °FPartly sunny.10 mph77%29.86 "HgN/A
8:55 AM57 °FPartly sunny.10 mph77%29.86 "HgN/A
8:25 AM55 °FBroken clouds.8 mph82%29.86 "HgN/A
7:55 AM54 °FOvercast.9 mph88%29.86 "HgN/A
7:25 AM54 °FOvercast.9 mph82%29.86 "HgN/A
6:55 AM52 °FMostly cloudy.9 mph88%29.89 "HgN/A
6:25 AM52 °FMostly cloudy.9 mph88%29.89 "HgN/A
5:55 AM52 °FOvercast.9 mph88%29.89 "HgN/A
5:25 AM50 °FOvercast.8 mph94%29.89 "HgN/A
4:55 AM52 °FMostly cloudy.8 mph88%29.89 "HgN/A
4:25 AM50 °FOvercast.7 mph94%29.89 "HgN/A
3:55 AM50 °FOvercast.7 mph94%29.92 "HgN/A
3:25 AM50 °FPassing clouds.6 mph88%29.92 "HgN/A
2:55 AM50 °FPassing clouds.6 mph88%29.92 "HgN/A
2:25 AM52 °FOvercast.6 mph82%29.92 "HgN/A
1:55 AM52 °FPassing clouds.7 mph82%29.92 "HgN/A
1:25 AM52 °FPassing clouds.7 mph82%29.95 "HgN/A
12:55 AM52 °FCool.5 mph88%29.95 "HgN/A
12:25 AM52 °FOvercast.6 mph88%29.95 "HgN/A
11:55 PM
Aug 21
52 °FOvercast.5 mph88%29.95 "HgN/A
11:25 PM52 °FOvercast.6 mph88%29.95 "HgN/A
10:55 PM52 °FOvercast.5 mph88%29.95 "HgN/A
10:25 PM52 °FOvercast.3 mph88%29.95 "HgN/A
9:55 PM54 °FOvercast.3 mph82%29.95 "HgN/A
9:25 PM55 °FPassing clouds.6 mph77%29.95 "HgN/A
8:55 PM57 °FPartly sunny.6 mph77%29.95 "HgN/A
8:25 PM59 °FMostly cloudy.6 mph77%29.95 "HgN/A
7:55 PM59 °FMostly cloudy.3 mph77%29.95 "HgN/A
7:25 PM61 °FBroken clouds.5 mph68%29.95 "HgN/A
6:55 PM63 °FMostly cloudy.6 mph64%29.95 "HgN/A
6:25 PM63 °FMore clouds than sun.9 mph59%29.95 "HgN/A
5:55 PM64 °FOvercast.13 mph56%29.95 "HgN/A
5:25 PM66 °FOvercast.12 mph52%29.95 "HgN/A
4:55 PM63 °FOvercast.10 mph59%29.98 "HgN/A
4:25 PM63 °FMostly cloudy.15 mph56%29.98 "HgN/A
3:55 PM64 °FPartly sunny.14 mph49%29.98 "HgN/A
3:25 PM66 °FOvercast.13 mph49%29.98 "HgN/A
2:55 PM68 °FBroken clouds.13 mph46%29.98 "HgN/A
2:25 PM64 °FPartly sunny.7 mph56%29.98 "HgN/A
1:55 PM64 °FPartly sunny.9 mph56%30.01 "HgN/A
1:25 PM63 °FBroken clouds.16 mph59%30.01 "HgN/A
12:55 PM63 °FMostly cloudy.10 mph59%30.01 "HgN/A
12:25 PM64 °FPartly sunny.13 mph64%30.01 "HgN/A
Weather by CustomWeather, © 2014

See weather overviewHow to use our weather pages